Location: Saint-Michel-des-Saints
(46.6688°N, 73.9573°W)
Time: 18:34:17
(UTC-05:00)

N. Korean satellite - Visible Passes

Search period start: 08 December 2019 00:00
Search period end: 18 December 2019 00:00
Orbit: 456 x 506 km, 97.2° (Epoch: 07 December)

Date Brightness Start Highest point End Pass type
(mag) Time Alt. Az. Time Alt. Az. Time Alt. Az.
08 Dec 7.5 05:36:06 10° NNE 05:39:35 50° E 05:42:59 10° S visible
08 Dec 9.4 17:47:55 10° SW 17:50:49 21° W 17:53:44 10° NW visible
09 Dec 8.9 05:11:04 10° NE 05:14:02 24° E 05:16:56 10° SSE visible
09 Dec 7.6 06:44:28 10° NNW 06:47:21 23° WNW 06:50:11 10° WSW visible
09 Dec 8.1 17:21:44 10° S 17:25:16 41° W 17:28:47 10° NNW visible
10 Dec 9.9 04:46:44 10° ENE 04:48:23 13° E 04:50:01 10° ESE visible
10 Dec 6.8 06:18:39 10° N 06:22:04 45° WNW 06:25:24 10° SW visible
10 Dec 6.7 16:56:05 10° SSE 16:59:47 85° WSW 17:03:30 10° NNW visible
11 Dec 6.5 05:53:06 10° NNE 05:56:40 84° ESE 06:00:08 10° SSW visible
11 Dec 9.9 18:06:03 10° WSW 18:08:02 14° W 18:10:02 10° WNW visible
12 Dec 8.0 05:27:50 10° NNE 05:31:11 39° E 05:34:27 10° SSE visible
12 Dec 9.0 17:39:17 10° SSW 17:42:24 26° W 17:45:34 10° NW visible
13 Dec 9.3 05:02:57 10° NE 05:05:36 20° E 05:08:11 10° SE visible
13 Dec 7.4 06:35:58 10° N 06:39:02 28° WNW 06:42:02 10° SW visible
13 Dec 7.6 17:13:16 10° S 17:16:53 51° W 17:20:29 10° NNW visible
14 Dec 6.5 06:10:14 10° N 06:13:42 57° WNW 06:17:05 10° SSW visible
14 Dec 6.6 16:47:45 10° SSE 16:51:26 76° ENE 16:55:06 10° N visible
15 Dec 6.8 05:44:46 10° NNE 05:48:16 66° E 05:51:41 10° S visible
15 Dec 9.8 17:57:08 10° SW 17:59:36 17° W 18:02:03 10° NW visible
16 Dec 8.4 05:19:35 10° NNE 05:22:44 30° E 05:25:49 10° SSE visible
16 Dec 7.9 06:53:26 10° NNW 06:55:56 19° WNW 06:58:24 10° WSW visible
16 Dec 8.6 17:30:41 10° SSW 17:34:00 32° W 17:37:19 10° NNW visible
17 Dec 9.6 04:54:54 10° NE 04:57:06 16° E 04:59:17 10° SE visible
17 Dec 7.1 06:27:27 10° N 06:30:39 34° WNW 06:33:48 10° SW visible
17 Dec 7.1 17:04:50 10° S 17:08:29 65° WSW 17:12:07 10° NNW visible
